DLH266 EDDL-EDDF

Flight info

Callsign DLH266
Flight time 0h 30m
Altitude 23000
Route COL5Z/05R COL T911 ROLIS ROLIS5A
Aircraft A20N/M-SDE2E3FGHIRWXY/LB1

Departure

Time 2026-05-05 18:23
Airport Düsseldorf Airport (EDDL)

Arrival

Time 2026-05-05 18:53
Airport Frankfurt Main Airport (EDDF)
Time Latitude Longitude Altitude Speed Heading
2026-05-05 18:06 51.27739 6.76157 130 ft 0 kts 158°
2026-05-05 18:13 51.27750 6.76150 125 ft 2 kts 158°
2026-05-05 18:13 51.27766 6.76140 125 ft 2 kts 158°
2026-05-05 18:13 51.27787 6.76126 123 ft 4 kts 160°
2026-05-05 18:13 51.27817 6.76123 124 ft 4 kts 201°
2026-05-05 18:14 51.27840 6.76151 126 ft 3 kts 248°
2026-05-05 18:14 51.27843 6.76172 124 ft 0 kts 275°
2026-05-05 18:16 51.27844 6.76159 124 ft 5 kts 272°
2026-05-05 18:16 51.27845 6.76079 127 ft 10 kts 271°
2026-05-05 18:17 51.27845 6.75960 130 ft 12 kts 270°
2026-05-05 18:17 51.27853 6.75820 131 ft 14 kts 283°
2026-05-05 18:17 51.27867 6.75651 126 ft 17 kts 291°
2026-05-05 18:17 51.27889 6.75519 124 ft 13 kts 245°
2026-05-05 18:18 51.27843 6.75386 127 ft 14 kts 271°
2026-05-05 18:18 51.27887 6.75314 125 ft 0 kts 333°
2026-05-05 18:21 51.27914 6.75293 121 ft 9 kts 334°
2026-05-05 18:21 51.27989 6.75274 122 ft 13 kts 25°
2026-05-05 18:22 51.28023 6.75327 121 ft 0 kts 53°
2026-05-05 18:22 51.28120 6.75531 125 ft 64 kts 53°
2026-05-05 18:23 51.28552 6.76437 134 ft 139 kts 52°
2026-05-05 18:23 51.29187 6.77810 679 ft 158 kts 51°
2026-05-05 18:23 51.29866 6.79287 1518 ft 171 kts 52°
2026-05-05 18:23 51.30576 6.80794 2447 ft 173 kts 52°
2026-05-05 18:24 51.31355 6.82403 2944 ft 196 kts 53°
2026-05-05 18:24 51.32234 6.84230 3495 ft 219 kts 53°
2026-05-05 18:24 51.33206 6.86266 4049 ft 242 kts 53°
2026-05-05 18:24 51.34266 6.88553 4691 ft 260 kts 54°
2026-05-05 18:25 51.35095 6.91101 5549 ft 266 kts 75°
2026-05-05 18:25 51.35260 6.93090 6166 ft 270 kts 92°
2026-05-05 18:25 51.34552 6.96875 7317 ft 275 kts 125°
2026-05-05 18:25 51.33185 6.99043 8232 ft 278 kts 144°
2026-05-05 18:26 51.31546 7.00707 9182 ft 283 kts 151°
2026-05-05 18:26 51.29799 7.02257 10095 ft 288 kts 152°
2026-05-05 18:26 51.27971 7.03871 10573 ft 309 kts 152°
2026-05-05 18:26 51.26051 7.05617 10909 ft 331 kts 150°
2026-05-05 18:27 51.24034 7.07500 11596 ft 339 kts 150°
2026-05-05 18:27 51.22001 7.09425 12470 ft 341 kts 150°
2026-05-05 18:27 51.19956 7.11369 13354 ft 344 kts 150°
2026-05-05 18:27 51.17886 7.13335 14119 ft 349 kts 150°
2026-05-05 18:28 51.13676 7.17324 15611 ft 355 kts 150°
2026-05-05 18:28 51.11541 7.19343 16325 ft 359 kts 150°
2026-05-05 18:28 51.09415 7.21352 17047 ft 362 kts 150°
2026-05-05 18:29 51.07241 7.23402 17753 ft 366 kts 150°
2026-05-05 18:29 51.05030 7.25485 18372 ft 370 kts 150°
2026-05-05 18:29 51.02815 7.27569 18610 ft 371 kts 150°
2026-05-05 18:29 51.00598 7.29653 18748 ft 371 kts 150°
2026-05-05 18:30 50.98365 7.31749 18825 ft 372 kts 150°
2026-05-05 18:30 50.96139 7.33836 18830 ft 372 kts 150°
2026-05-05 18:30 50.93917 7.35917 18828 ft 372 kts 150°
2026-05-05 18:30 50.91692 7.38000 18790 ft 371 kts 150°
2026-05-05 18:31 50.89476 7.40071 18567 ft 369 kts 150°
2026-05-05 18:31 50.87265 7.42134 18333 ft 370 kts 150°
2026-05-05 18:31 50.85045 7.44203 18090 ft 369 kts 150°
2026-05-05 18:31 50.82843 7.46254 17825 ft 368 kts 150°
2026-05-05 18:32 50.80646 7.48297 17557 ft 367 kts 150°
2026-05-05 18:32 50.78441 7.50347 17289 ft 365 kts 150°
2026-05-05 18:32 50.76263 7.52369 17021 ft 364 kts 150°
2026-05-05 18:32 50.74078 7.54395 16753 ft 363 kts 150°
2026-05-05 18:33 50.71893 7.56419 16512 ft 362 kts 150°
2026-05-05 18:33 50.69723 7.58427 16246 ft 361 kts 150°
2026-05-05 18:33 50.67561 7.60425 15986 ft 360 kts 150°
2026-05-05 18:33 50.65406 7.62415 15730 ft 358 kts 150°
2026-05-05 18:34 50.63258 7.64396 15481 ft 358 kts 150°
2026-05-05 18:34 50.61120 7.66367 15230 ft 357 kts 150°
2026-05-05 18:34 50.58990 7.68328 14984 ft 355 kts 150°
2026-05-05 18:34 50.56876 7.70272 14762 ft 354 kts 150°
2026-05-05 18:35 50.54752 7.72223 14519 ft 353 kts 150°
2026-05-05 18:35 50.52636 7.74165 14271 ft 352 kts 150°
2026-05-05 18:35 50.50522 7.76102 14037 ft 351 kts 150°
2026-05-05 18:35 50.48411 7.78035 13803 ft 350 kts 150°
2026-05-05 18:36 50.46307 7.79959 13455 ft 351 kts 151°
2026-05-05 18:36 50.44204 7.81883 12976 ft 349 kts 150°
2026-05-05 18:36 50.42228 7.84048 12577 ft 343 kts 142°
2026-05-05 18:36 50.40368 7.86389 12264 ft 344 kts 142°
2026-05-05 18:37 50.38492 7.88739 11939 ft 345 kts 143°
2026-05-05 18:37 50.36630 7.91060 11740 ft 336 kts 143°
2026-05-05 18:37 50.34842 7.93282 11625 ft 323 kts 143°
2026-05-05 18:37 50.33263 7.95737 11183 ft 323 kts 126°
2026-05-05 18:38 50.32375 7.99017 10726 ft 341 kts 104°
2026-05-05 18:38 50.31954 8.02721 10497 ft 346 kts 99°
2026-05-05 18:38 50.31625 8.06406 10294 ft 340 kts 99°
2026-05-05 18:38 50.31279 8.10028 10182 ft 327 kts 101°
2026-05-05 18:39 50.30909 8.13473 10068 ft 314 kts 102°
2026-05-05 18:39 50.30532 8.16727 9945 ft 302 kts 102°
2026-05-05 18:39 50.30138 8.19974 9630 ft 297 kts 103°
2026-05-05 18:39 50.29790 8.22787 9494 ft 289 kts 103°
2026-05-05 18:40 50.29409 8.25839 9347 ft 290 kts 103°
2026-05-05 18:40 50.29017 8.28964 9009 ft 290 kts 103°
2026-05-05 18:40 50.28628 8.32071 8631 ft 289 kts 103°
2026-05-05 18:40 50.28251 8.35093 8249 ft 288 kts 103°
2026-05-05 18:41 50.27868 8.38155 7872 ft 286 kts 103°
2026-05-05 18:41 50.27477 8.41247 7495 ft 285 kts 103°
2026-05-05 18:41 50.27090 8.44245 7123 ft 284 kts 103°
2026-05-05 18:41 50.26695 8.47298 6760 ft 282 kts 103°
2026-05-05 18:42 50.26322 8.50269 6349 ft 281 kts 103°
2026-05-05 18:42 50.25960 8.53266 5935 ft 280 kts 103°
2026-05-05 18:42 50.25589 8.56283 5541 ft 278 kts 103°
2026-05-05 18:42 50.25218 8.59235 5185 ft 276 kts 103°
2026-05-05 18:43 50.24851 8.62120 5044 ft 277 kts 103°
2026-05-05 18:43 50.24471 8.65082 5013 ft 277 kts 103°
2026-05-05 18:43 50.24087 8.68073 5012 ft 277 kts 103°
2026-05-05 18:43 50.23710 8.71004 5013 ft 277 kts 103°
2026-05-05 18:44 50.23328 8.73937 5011 ft 270 kts 103°
2026-05-05 18:44 50.22967 8.76699 5010 ft 255 kts 103°
2026-05-05 18:44 50.22624 8.79343 5008 ft 241 kts 103°
2026-05-05 18:44 50.22399 8.81075 5016 ft 245 kts 103°
2026-05-05 18:45 50.21950 8.84548 5015 ft 244 kts 103°
2026-05-05 18:45 50.21613 8.87134 5014 ft 244 kts 103°
2026-05-05 18:45 50.21385 8.88892 5016 ft 244 kts 103°
2026-05-05 18:45 50.20932 8.91435 5015 ft 241 kts 121°
2026-05-05 18:46 50.19831 8.93331 5016 ft 236 kts 152°
2026-05-05 18:46 50.18300 8.94037 5020 ft 228 kts 183°
2026-05-05 18:46 50.16856 8.93380 5016 ft 215 kts 216°
2026-05-05 18:46 50.15716 8.91839 5013 ft 218 kts 224°
2026-05-05 18:47 50.14617 8.90237 5015 ft 216 kts 224°
2026-05-05 18:47 50.13537 8.88601 5012 ft 217 kts 230°
2026-05-05 18:47 50.12710 8.86686 5008 ft 207 kts 242°
2026-05-05 18:47 50.12132 8.84695 4854 ft 199 kts 248°
2026-05-05 18:48 50.11635 8.82683 4618 ft 196 kts 249°
2026-05-05 18:48 50.11164 8.80745 4310 ft 188 kts 249°
2026-05-05 18:48 50.10711 8.78868 4030 ft 182 kts 249°
2026-05-05 18:48 50.10269 8.77042 3776 ft 181 kts 249°
2026-05-05 18:49 50.09823 8.75194 3505 ft 180 kts 249°
2026-05-05 18:49 50.09385 8.73376 3251 ft 180 kts 249°
2026-05-05 18:49 50.08947 8.71560 2996 ft 181 kts 249°
2026-05-05 18:49 50.08521 8.69792 2747 ft 165 kts 250°
2026-05-05 18:50 50.08151 8.68252 2524 ft 146 kts 250°
2026-05-05 18:50 50.07811 8.66839 2316 ft 132 kts 250°
2026-05-05 18:50 50.07488 8.65494 2129 ft 135 kts 250°
2026-05-05 18:50 50.07167 8.64158 1946 ft 132 kts 250°
2026-05-05 18:51 50.06844 8.62813 1750 ft 132 kts 250°
2026-05-05 18:51 50.06522 8.61475 1567 ft 132 kts 250°
2026-05-05 18:51 50.06207 8.60173 1366 ft 133 kts 249°
2026-05-05 18:51 50.05887 8.58831 1165 ft 134 kts 250°
2026-05-05 18:52 50.05569 8.57477 952 ft 133 kts 249°
2026-05-05 18:52 50.05237 8.56122 762 ft 133 kts 249°
2026-05-05 18:52 50.04913 8.54758 578 ft 133 kts 249°
2026-05-05 18:52 50.04593 8.53421 412 ft 133 kts 249°
2026-05-05 18:53 50.04266 8.52065 331 ft 125 kts 249°
2026-05-05 18:53 50.04025 8.51105 321 ft 66 kts 239°
2026-05-05 18:53 50.03869 8.50869 319 ft 0 kts 216°
2026-05-05 18:53 50.03867 8.50866 319 ft 3 kts 216°
2026-05-05 18:54 50.03821 8.50836 322 ft 10 kts 176°
2026-05-05 18:54 50.03781 8.50909 321 ft 9 kts 87°
2026-05-05 18:54 50.03801 8.51009 321 ft 10 kts 68°
2026-05-05 18:54 50.03836 8.51163 326 ft 18 kts 71°
2026-05-05 18:55 50.03881 8.51346 324 ft 19 kts 70°
2026-05-05 18:55 50.03926 8.51533 328 ft 18 kts 70°
2026-05-05 18:55 50.03977 8.51683 332 ft 13 kts 88°
2026-05-05 18:55 50.04010 8.51882 329 ft 28 kts 71°
2026-05-05 18:56 50.04090 8.52220 341 ft 35 kts 69°
2026-05-05 18:56 50.04177 8.52572 343 ft 34 kts 70°
2026-05-05 18:56 50.04258 8.52914 349 ft 33 kts 69°
2026-05-05 18:56 50.04333 8.53232 355 ft 30 kts 70°
2026-05-05 18:57 50.04396 8.53536 354 ft 29 kts 82°
2026-05-05 18:57 50.04418 8.53855 355 ft 30 kts 85°
2026-05-05 18:57 50.04438 8.54174 355 ft 30 kts 83°
2026-05-05 18:57 50.04450 8.54495 357 ft 30 kts 101°
2026-05-05 18:58 50.04331 8.54752 358 ft 30 kts 149°
2026-05-05 18:58 50.04143 8.54866 356 ft 30 kts 159°
2026-05-05 18:58 50.03960 8.54975 357 ft 26 kts 160°
2026-05-05 18:58 50.03844 8.55107 353 ft 15 kts 91°
2026-05-05 18:59 50.03879 8.55247 354 ft 15 kts 68°
2026-05-05 18:59 50.03919 8.55409 354 ft 17 kts 70°
2026-05-05 18:59 50.03962 8.55592 357 ft 19 kts 69°
2026-05-05 18:59 50.04011 8.55789 359 ft 21 kts 69°
2026-05-05 19:00 50.04063 8.56011 355 ft 23 kts 70°
2026-05-05 19:00 50.04083 8.56096 357 ft 4 kts 69°
2026-05-05 19:00 50.04101 8.56169 360 ft 10 kts 70°
2026-05-05 19:00 50.04143 8.56349 358 ft 22 kts 69°
2026-05-05 19:01 50.04199 8.56583 355 ft 24 kts 70°
2026-05-05 19:01 50.04268 8.56792 355 ft 15 kts 21°
2026-05-05 19:01 50.04364 8.56834 354 ft 0 kts 11°
2026-05-05 19:02 50.04441 8.56858 354 ft 20 kts 12°
2026-05-05 19:02 50.04592 8.56905 357 ft 24 kts 13°
2026-05-05 19:02 50.04745 8.56999 359 ft 23 kts 25°
2026-05-05 19:02 50.04845 8.57081 358 ft 8 kts 63°
2026-05-05 19:03 50.04833 8.57122 354 ft 5 kts 124°
2026-05-05 19:03 50.04815 8.57174 354 ft 5 kts 115°
2026-05-05 19:03 50.04812 8.57185 354 ft 1 kts 113°
2026-05-05 19:03 50.04812 8.57186 354 ft 0 kts 114°